Paso Robles, CA

10:15 PM PDT on October 23, 2017 (GMT -0700)
Paso Robles Municipal

Weather History for KPRB - October, 2014

Change the Weather History Date:

Saturday, October 11, 2014

  Actual Average Record
Temperature  
Mean Temperature 71 °F 63 °F  
Max Temperature 92 °F 81 °F 98 °F (1992)
Min Temperature 49 °F 46 °F 31 °F (2008)
Degree Days  
Heating Degree Days 0 3  
Month to date heating degree days 0 29  
Since 1 July heating degree days 1 61  
Cooling Degree Days 6 1  
Month to date cooling degree days 88 25  
Year to date cooling degree days 1340 916  
Growing Degree Days 20 (Base 50)    
Moisture  
Dew Point 47 °F    
Average Humidity 58    
Maximum Humidity 100    
Minimum Humidity 16    
Precipitation  
Precipitation 0.00 in 0.01 in 0.44 in (1957)
Month to date precipitation 0.00 0.14  
Year to date precipitation 4.46 9.26  
Since 1 July precipitation T  
Sea Level Pressure  
Sea Level Pressure 30.00 in    
Wind  
Wind Speed 3 mph (NNW)    
Max Wind Speed 15 mph    
Max Gust Speed 19 mph    
Visibility 6 miles    
Events Fog    
T = Trace of Precipitation, MM = Missing Value Source: NWS Daily Summary

Daily Weather History Graph

Daily Weather History Graph

Search for Another Location

Airport or City:

Trip Planner

Search our weather history database for the weather conditions in past years. The results will help you decide how hot, cold, wet, or windy it might be!

Date:

Astronomy

Oct. 11, 2014 Rise Set
Actual Time 7:05 AM PDT 6:32 PM PDT
Civil Twilight 6:40 AM PDT 6:57 PM PDT
Nautical Twilight 6:10 AM PDT 7:27 PM PDT
Astronomical Twilight 5:40 AM PDT 7:56 PM PDT
Moon 9:10 PM PDT (10/11) 10:28 AM PDT (10/11)
Length of Visible Light 12h 17m
Length of Day
11h 26m
Waning Gibbous, 86% of the Moon is Illuminated
Oct 11
Waning Gibbous
Oct 15
Last Quarter
Oct 23
New
Oct 30
First Quarter
Nov 6
Full

Hourly Weather History & Observations

Time (PDT) Temp. Dew Point Humidity Pressure Visibility Wind Dir Wind Speed Gust Speed Precip Events Conditions
12:53 AM 57.9 °F 50.0 °F 75% 30.01 in 10.0 mi ESE 6.9 mph - N/A   Clear
1:53 AM 57.0 °F 48.9 °F 74% 30.01 in 10.0 mi Calm Calm - N/A   Clear
2:53 AM 53.1 °F 46.9 °F 80% 30.00 in 10.0 mi North 5.8 mph - N/A   Clear
3:53 AM 52.0 °F 48.9 °F 89% 30.00 in 10.0 mi Calm Calm - N/A   Clear
4:04 AM 51.1 °F 46.9 °F 86% 30.01 in 1.5 mi Calm Calm - N/A   Partly Cloudy
4:07 AM 51.1 °F 48.0 °F 89% 30.01 in 0.8 mi Calm Calm - N/A   Mist
4:14 AM 51.1 °F 48.0 °F 89% 30.02 in 1.0 mi Calm Calm - N/A   Clear
4:18 AM 50.0 °F 48.0 °F 93% 30.02 in 3.0 mi Calm Calm - N/A   Clear
4:50 AM 50.0 °F 46.4 °F 87% 30.02 in 4.0 mi Calm Calm - N/A   Scattered Clouds
4:53 AM 48.9 °F 46.0 °F 90% 30.00 in 1.0 mi Calm Calm - N/A   Mist
4:58 AM 50.0 °F 46.9 °F 89% 30.02 in 0.2 mi Calm Calm - N/A Fog Fog
5:53 AM 48.9 °F 46.9 °F 93% 30.01 in 0.2 mi Calm Calm - N/A Fog Fog
6:53 AM 48.9 °F 46.9 °F 93% 30.04 in 0.2 mi Calm Calm - N/A Fog Fog
7:53 AM 50.0 °F 48.9 °F 96% 30.05 in 0.2 mi Calm Calm - N/A Fog Fog
8:35 AM 52.0 °F 50.0 °F 93% 30.07 in 0.2 mi North - - N/A Fog Fog
8:51 AM 51.8 °F 51.8 °F 100% 30.07 in 0.5 mi Calm Calm - N/A Fog Fog
8:53 AM 52.0 °F 51.1 °F 97% 30.06 in 0.5 mi Calm Calm - N/A Fog Fog
9:02 AM 52.0 °F 50.0 °F 93% 30.07 in 2.0 mi Calm Calm - N/A   Overcast
9:10 AM 52.0 °F 50.0 °F 93% 30.07 in 4.0 mi Calm Calm - N/A   Overcast
9:39 AM 53.1 °F 50.0 °F 89% 30.07 in 8.0 mi Calm Calm - N/A   Partly Cloudy
9:53 AM 57.0 °F 50.0 °F 77% 30.06 in 10.0 mi NNW 3.5 mph - N/A   Clear
10:53 AM 64.9 °F 48.9 °F 56% 30.04 in 10.0 mi Calm Calm - N/A   Clear
11:53 AM 73.9 °F 48.0 °F 40% 30.01 in 10.0 mi Variable 3.5 mph - N/A   Clear
12:53 PM 81.0 °F 46.9 °F 30% 29.99 in 10.0 mi Variable 3.5 mph - N/A   Clear
1:53 PM 86.0 °F 44.1 °F 23% 29.96 in 10.0 mi Variable 3.5 mph - N/A   Clear
2:53 PM 89.1 °F 44.1 °F 21% 29.94 in 10.0 mi North 5.8 mph - N/A   Clear
3:53 PM 90.0 °F 43.0 °F 19% 29.91 in 10.0 mi NNW 3.5 mph - N/A   Clear
4:53 PM 91.0 °F 41.0 °F 17% 29.91 in 10.0 mi NNW 4.6 mph - N/A   Clear
5:53 PM 89.1 °F 37.9 °F 16% 29.91 in 10.0 mi NNW 10.4 mph - N/A   Clear
6:53 PM 82.0 °F 41.0 °F 23% 29.92 in 10.0 mi WNW 8.1 mph - N/A   Clear
7:53 PM 77.0 °F 48.0 °F 36% 29.94 in 10.0 mi NW 8.1 mph - N/A   Clear
8:53 PM 73.0 °F 46.0 °F 38% 29.95 in 10.0 mi NW 9.2 mph - N/A   Clear
9:53 PM 69.1 °F 46.0 °F 44% 29.97 in 10.0 mi NW 4.6 mph - N/A   Clear
10:53 PM 66.0 °F 46.0 °F 48% 29.97 in 10.0 mi NW 4.6 mph - N/A   Clear
11:53 PM 63.0 °F 46.9 °F 56% 29.96 in 10.0 mi Calm Calm - N/A   Clear